Regional Weather Roundup
Issued by NWS

Home | Current Version | Previous Version | Text Only | Print | Product List | Glossary Off
Versions: 1 2 3 4 5 6 7 8 9 10 11 12 13 14 15 16 17 18 19 20 21 22 23 24 25 26 27 28 29 30 31 32 33 34 35 36 37 38 39 40 41 42 43 44 45 46 47 48 49 50

301
ASUS43 KLOT 270103
RWRIL

ILLINOIS REGIONAL WEATHER ROUNDUP
NATIONAL WEATHER SERVICE CHICAGO/ROMEOVILLE IL
800 PM CDT THU MAY 26 2016

NOTE: "FAIR" INDICATES FEW OR NO CLOUDS BELOW 12,000 FEET WITH NO
SIGNIFICANT WEATHER AND/OR OBSTRUCTIONS TO VISIBILITY.

* THESE STATIONS ARE NOT UNDER NWS QUALITY CONTROL. THEY ALSO MAY NOT
  REPORT WEATHER SUCH AS PRECIPITATION OR FOG.

ILZ001-002-007-009-015-016-024-270200-
NORTHWEST ILLINOIS

CITY           SKY/WX    TMP DP  RH WIND       PRES   REMARKS
MOLINE         CLOUDY    80  64  58 S3        29.84R HX  82
STERLING*      CLOUDY    77  64  64 CALM      29.86R
$$

ILZ003-004-008-010-011-017-018-270200-
NORTH CENTRAL ILLINOIS

CITY           SKY/WX    TMP DP  RH WIND       PRES   REMARKS
ROCKFORD       CLOUDY    80  63  55 CALM      29.87R HX  81
FREEPORT*      CLOUDY    74  62  65 NW3       29.88R
ROCHELLE*      MOCLDY    78  66  68 CALM      29.86R HX  80
$$

ILZ005-006-012>014-019>023-270200-
NORTHEAST ILLINOIS

CITY           SKY/WX    TMP DP  RH WIND       PRES   REMARKS
CHICAGO-OHARE  MOCLDY    79  63  57 CALM      29.85R HX  80
CHICAGO-MIDWAY MOCLDY    83  62  49 S3        29.85R HX  84
AURORA         PTCLDY    79  70  74 VRB3      29.86R HX  82
LANSING*       CLEAR     76  64  65 S7        29.88R
WAUKEGAN       PTCLDY    72  63  73 CALM      29.86R
DUPAGE AIRPORT PTCLDY    77  65  66 CALM      29.86R
WHEELING       CLEAR     78  63  59 CALM      29.86R HX  80
NORTHERLY ISL    N/A     71  58  63 S3          N/A
NORTHERLY ISL    N/A     71  58  63 S3          N/A
$$

LMZ740>746-270200-
SOUTHERN LAKE MICHIGAN

STATION/POSITION SKY/WX   TEMP    WIND        PRES    VSBY  WAVE
                          AIR SEA DIR/SP/G                  HT/PER
                          (F)     (DEG/KT/KT) (MB)    (MI)  (FT/S)
WILMETTE HARBOR            63 58  140/  6/  8   N/A           1
HARRISON CRIB              79     160/  7/  9   N/A
BURNHAM HARBOR             67     150/  3/ 11   N/A
CALUMET HARBOR                                1010.3R
BURNS HARBOR               82     200/  8/ 11 1011.2R
MICHIGAN CITY              76     200/  3/  3   N/A
MICHIGAN CITY 6N           66 62   60/  2/  4   N/A           1
ST. JOSEPH                 69 64  110/  2/  2   N/A           1
$$

ILZ025>027-034>036-040-047-049-050-058-095>099-270200-
WEST-CENTRAL ILLINOIS

CITY           SKY/WX    TMP DP  RH WIND       PRES   REMARKS
QUINCY         CLOUDY    78  70  76 S5        29.88R HX  80
MACOMB*        CLOUDY    77  69  76 S3        29.89R
PITTSFIELD*    CLOUDY    77  69  75 S5        29.88R
$$

ILZ028>032-037-038-041>044-048-051>054-059>061-270200-
CENTRAL ILLINOIS

CITY           SKY/WX    TMP DP  RH WIND       PRES   REMARKS
BLOOMINGTON    CLOUDY    75  71  87 S9        29.91R
DECATUR        CLOUDY    74  66  76 S8        29.90R
PEORIA         CLOUDY    78  68  71 S8        29.87R HX  80
SPRINGFIELD    CLOUDY    76  69  79 S8        29.89R
TAYLORVILLE    NOT AVBL
$$

ILZ033-039-045-046-055>057-062-063-270200-
EAST-CENTRAL ILLINOIS

CITY           SKY/WX    TMP DP  RH WIND       PRES   REMARKS
CHAMPAIGN      CLEAR     73  66  78 S10       29.92R
MATTOON        CLEAR     70  64  81 S7        29.92R
$$

ILZ079-100>102-270200-
SOUTHWEST ILLINOIS

CITY           SKY/WX    TMP DP  RH WIND       PRES   REMARKS
BELLEVILLE     CLOUDY    72  69  91 E3        29.89R
CAHOKIA*       CLOUDY    74  66  76 SE6       29.88R
SPARTA*        CLOUDY    70  66  85 S5        29.93R
$$

ILZ064>066-069>071-074>076-080>082-084>086-088>090-092>094-270200-
SOUTH-CENTRAL ILLINOIS

CITY           SKY/WX    TMP DP  RH WIND       PRES   REMARKS
CARBONDALE     PTCLDY    69  64  84 SE7       29.95R
EFFINGHAM*     CLOUDY    71  67  88 E3        29.94R
MT. VERNON     MOCLDY    70  61  73 S6        29.95R
SALEM*         CLOUDY    72  64  76 CALM      29.91S
$$

ILZ067-068-072-073-078-083-087-091-270200-
SOUTHEAST ILLINOIS

CITY           SKY/WX    TMP DP  RH WIND       PRES   REMARKS
LAWRENCEVILLE  MOCLDY    70  67  90 S6        29.95R
FLORA*         MOCLDY    70  66  85 SE6       29.93R
HARRISBURG*    MOCLDY    69  65  88 SW5       29.95R
ROBINSON*      MOCLDY    68  65  89 SE6       29.95S
$$

ABBREVIATIONS USED IN REMARKS
   TC - TEMPERATURE IN CELSIUS
  WCI - WIND CHILL INDEX
   HX - HEAT INDEX
  VSB - VISIBILITY
$$





USA.gov is the U.S. government's official web portal to all federal, state and local government web resources and services.